Location: Unspecified
(0.0000°N, 0.0000°E)
Time: 06:52:34
(UTC+00:00)

SEEDS - Visible Passes

Search period start: 10 July 2020 00:00
Search period end: 20 July 2020 00:00
Orbit: 585 x 604 km, 97.5° (Epoch: 09 July)

Date Brightness Start Highest point End Pass type
(mag) Time Alt. Az. Time Alt. Az. Time Alt. Az.
10 Jul ? 04:21:03 10° NE 04:24:13 21° ESE 04:27:24 10° SSE visible
11 Jul ? 04:30:00 10° NE 04:33:37 28° ESE 04:37:15 10° SSE visible
12 Jul ? 04:39:05 10° NNE 04:43:00 38° ESE 04:46:57 10° S visible
13 Jul ? 04:48:17 10° NNE 04:52:24 54° E 04:56:33 10° S visible
14 Jul ? 04:57:35 10° NNE 05:01:49 77° ESE 05:06:03 10° S visible
15 Jul ? 05:07:00 10° N 05:11:12 77° WNW 05:15:27 10° SSW visible
16 Jul ? 05:16:29 10° N 05:20:36 54° WNW 05:24:46 10° SSW visible
17 Jul ? 05:26:04 10° N 05:30:00 38° WNW 05:33:58 10° SSW visible
18 Jul ? 04:02:56 10° E 04:04:03 11° ESE 04:05:10 10° ESE visible
18 Jul ? 05:35:46 10° NNW 05:39:24 28° W 05:43:03 10° SW visible
19 Jul ? 04:10:59 10° ENE 04:13:26 15° ESE 04:15:54 10° SE visible
